This demonstration page uses our WeatherBlox Daily Observations layout. Learn more.

Left ArrowRight Arrow

Hourly Observations for January 4, 2022

Temp ( °F °C ) Dew Point ( °F °C ) Humidity (%) Winds ( mph kmh ) Pressure ( in mb ) Visibility ( mi km ) Precip ( " mm )
12:15 am 00:15 Clear 28 -2 21 -6 74 74 N 7 11 30.39 1029 10 16 N/A
12:35 am 00:35 Clear 28 -2 21 -6 74 74 N 5 7 30.40 1029 10 16 N/A
12:55 am 00:55 Clear 28 -2 21 -6 74 74 N 7 11 30.40 1029 10 16 N/A
1:15 am 01:15 Clear 28 -2 21 -6 74 74 N 7 11 30.41 1030 10 16 N/A
1:35 am 01:35 Clear 28 -2 21 -6 74 74 NNE 3 6 30.41 1030 10 16 N/A
1:55 am 01:55 Clear 28 -2 21 -6 74 74 NNE 5 7 30.42 1030 10 16 N/A
2:15 am 02:15 Clear 28 -2 21 -6 74 74 N 6 9 30.43 1030 10 16 N/A
2:35 am 02:35 Clear 28 -2 21 -6 74 74 N 8 13 30.43 1030 10 16 N/A
2:55 am 02:55 Clear 28 -2 21 -6 74 74 N 5 7 30.44 1031 10 16 N/A
3:15 am 03:15 Clear 27 -3 21 -6 80 80 N 3 6 30.44 1031 10 16 N/A
3:35 am 03:35 Clear 27 -3 21 -6 80 80 N N/A 30.44 1031 10 16 N/A
3:55 am 03:55 Clear 27 -3 21 -6 80 80 N N/A 30.44 1031 10 16 N/A
4:15 am 04:15 Clear 27 -3 21 -6 80 80 N N/A 30.43 1030 10 16 N/A
4:35 am 04:35 Clear 23 -5 21 -6 93 93 N N/A 30.44 1031 10 16 N/A
4:55 am 04:55 Clear 23 -5 23 -5 100 100 N N/A 30.44 1031 10 16 N/A
5:15 am 05:15 Clear 23 -5 23 -5 100 100 N N/A 30.45 1031 10 16 N/A
5:35 am 05:35 Clear 21 -6 21 -6 100 100 N N/A 30.45 1031 10 16 N/A
5:55 am 05:55 Clear 21 -6 21 -6 100 100 SW 3 6 30.46 1032 10 16 N/A
6:15 am 06:15 Clear 21 -6 21 -6 100 100 N N/A 30.46 1032 10 16 N/A
6:35 am 06:35 Clear 21 -6 21 -6 100 100 N N/A 30.46 1032 10 16 N/A
6:55 am 06:55 Clear 21 -6 21 -6 100 100 N N/A 30.47 1032 10 16 N/A
7:15 am 07:15 Clear 21 -6 21 -6 100 100 N N/A 30.48 1032 10 16 N/A
7:35 am 07:35 Sunny 19 -7 19 -7 100 100 N N/A 30.48 1032 10 16 N/A
7:55 am 07:55 Sunny 19 -7 19 -7 100 100 N N/A 30.48 1032 10 16 N/A
8:15 am 08:15 Sunny 21 -6 21 -6 100 100 N N/A 30.48 1032 10 16 N/A
8:35 am 08:35 Sunny 23 -5 23 -5 100 100 N N/A 30.48 1032 10 16 N/A
8:55 am 08:55 Sunny 25 -4 23 -5 93 93 N N/A 30.49 1032 10 16 N/A
9:15 am 09:15 Sunny 27 -3 23 -5 86 86 N N/A 30.49 1032 10 16 N/A
9:35 am 09:35 Sunny 27 -3 23 -5 86 86 N N/A 30.50 1033 10 16 N/A
9:55 am 09:55 Sunny 28 -2 25 -4 86 86 SSW 3 6 30.51 1033 10 16 N/A
10:15 am 10:15 Sunny 30 -1 25 -4 80 80 SSW 7 11 30.51 1033 10 16 N/A
10:35 am 10:35 Sunny 30 -1 25 -4 80 80 SSW 5 7 30.50 1033 10 16 N/A
10:55 am 10:55 Sunny 30 -1 25 -4 80 80 S 5 7 30.49 1033 10 16 N/A
11:15 am 11:15 Sunny 32 undefined 25 -4 75 75 S 7 11 30.49 1033 10 16 N/A
11:35 am 11:35 Sunny 32 undefined 25 -4 75 75 S 6 9 30.48 1032 10 16 N/A
11:55 am 11:55 Sunny 32 undefined 27 -3 80 80 S 8 13 30.47 1032 10 16 N/A
12:15 pm 12:15 Sunny 32 undefined 27 -3 80 80 S 7 11 30.46 1032 10 16 0.01 0.25
12:35 pm 12:35 Sunny 32 undefined 27 -3 80 80 S 6 9 30.45 1031 10 16 0.01 0.25
12:55 pm 12:55 Sunny 32 undefined 27 -3 80 80 S 10 17 30.44 1031 10 16 0.03 0.76
1:15 pm 13:15 Sunny 32 undefined 27 -3 80 80 S 12 19 30.43 1031 10 16 N/A
1:35 pm 13:35 Sunny 32 undefined 27 -3 80 80 S 9 15 30.43 1031 10 16 N/A
1:55 pm 13:55 Sunny 32 undefined 28 -2 87 87 SSW 10 17 30.42 1030 10 16 N/A
2:15 pm 14:15 Sunny 32 undefined 28 -2 87 87 S 9 15 30.42 1030 10 16 N/A
2:35 pm 14:35 Sunny 34 1 28 -2 81 81 S 7 11 30.42 1030 10 16 0.02 0.51
2:55 pm 14:55 Sunny 34 1 28 -2 81 81 S 10 17 30.41 1030 10 16 0.02 0.51
3:15 pm 15:15 Sunny 34 1 28 -2 81 81 S 7 11 30.41 1030 10 16 N/A
3:35 pm 15:35 Sunny 32 undefined 28 -2 87 87 S 9 15 30.40 1030 10 16 N/A
3:55 pm 15:55 Sunny 32 undefined 28 -2 87 87 S 10 17 30.40 1030 10 16 N/A
4:15 pm 16:15 Sunny 32 undefined 28 -2 87 87 S 9 15 30.40 1030 10 16 N/A
4:35 pm 16:35 Sunny 32 undefined 28 -2 87 87 S 10 17 30.39 1029 10 16 N/A
4:55 pm 16:55 Sunny 32 undefined 28 -2 87 87 S 8 13 30.39 1029 10 16 N/A
5:15 pm 17:15 Clear 32 undefined 28 -2 87 87 S 8 13 30.39 1029 10 16 N/A
5:35 pm 17:35 Clear 32 undefined 28 -2 87 87 S 6 9 30.38 1029 10 16 N/A
5:55 pm 17:55 Clear 30 -1 28 -2 93 93 S 6 9 30.37 1029 10 16 N/A
6:15 pm 18:15 Clear 30 -1 28 -2 93 93 S 6 9 30.37 1029 10 16 N/A
6:35 pm 18:35 Clear 30 -1 28 -2 93 93 S 6 9 30.35 1028 10 16 N/A
6:55 pm 18:55 Clear 30 -1 28 -2 93 93 N N/A 30.34 1028 10 16 N/A
7:15 pm 19:15 Clear 30 -1 28 -2 93 93 S 7 11 30.34 1028 10 16 N/A
7:35 pm 19:35 Clear 30 -1 28 -2 93 93 S 9 15 30.33 1027 10 16 N/A
7:55 pm 19:55 Clear 30 -1 28 -2 93 93 S 8 13 30.33 1027 10 16 N/A
8:15 pm 20:15 Clear 30 -1 28 -2 93 93 S 7 11 30.33 1027 10 16 N/A
8:35 pm 20:35 Clear 28 -2 28 -2 100 100 S 6 9 30.34 1027 10 16 N/A
8:55 pm 20:55 Clear 28 -2 28 -2 100 100 S 9 15 30.33 1027 10 16 N/A
9:15 pm 21:15 Clear 28 -2 28 -2 100 100 S 7 11 30.33 1027 10 16 N/A
9:35 pm 21:35 Clear 28 -2 28 -2 100 100 S 9 15 30.32 1027 10 16 N/A
9:55 pm 21:55 Clear 28 -2 28 -2 100 100 SSW 7 11 30.32 1027 10 16 N/A
10:15 pm 22:15 Clear 28 -2 28 -2 100 100 SSW 7 11 30.32 1027 10 16 N/A
10:35 pm 22:35 Clear 28 -2 28 -2 100 100 S 8 13 30.32 1027 10 16 N/A
10:55 pm 22:55 Clear 28 -2 28 -2 100 100 S 8 13 30.31 1026 10 16 N/A
11:15 pm 23:15 Clear 28 -2 28 -2 100 100 S 9 15 30.29 1026 10 16 N/A
11:35 pm 23:35 Clear 27 -3 27 -3 100 100 SSW 5 7 30.29 1026 10 16 N/A
11:55 pm 23:55 Clear 27 -3 27 -3 100 100 S 5 7 30.27 1025 10 16 N/A

Powered by AerisWeather